Weather History for KIKK - May, 2013

Change the Weather History Date:

Wednesday, May 29, 2013

  Actual Average Record
Temperature  
Mean Temperature 73 °F -  
Max Temperature 84 °F 75 °F 93 °F (2006)
Min Temperature 63 °F 54 °F 33 °F (2008)
Cooling Degree Days 8    
Growing Degree Days 23 (Base 50)    
Moisture  
Dew Point 65 °F    
Average Humidity 75    
Maximum Humidity 98    
Minimum Humidity 57    
Precipitation  
Precipitation 0.26 in - - ()
Sea Level Pressure  
Sea Level Pressure 29.92 in    
Wind  
Wind Speed 9 mph (South)    
Max Wind Speed 21 mph    
Max Gust Speed 32 mph    
Visibility 10 miles    
Events Rain , Thunderstorm    
Averages and records for this station are not official NWS values.
T = Trace of Precipitation, MM = Missing Value Source: NWS Daily Summary

Daily Weather History Graph

Daily Weather History Graph

Search for Another Location

Airport or City:

Trip Planner

Search our weather history database for the weather conditions in past years. The results will help you decide how hot, cold, wet, or windy it might be!

Date:

Astronomy

May. 29, 2013 Rise Set
Actual Time 5:22 AM CDT 8:15 PM CDT
Civil Twilight 4:50 AM CDT 8:48 PM CDT
Nautical Twilight 4:08 AM CDT 9:29 PM CDT
Astronomical Twilight 3:21 AM CDT 10:17 PM CDT
Moon No Moon Rise 10:22 AM CDT (5/29)
Length of Visible Light 15h 58m
Length of Day
14h 52m
Waning Gibbous, 73% of the Moon is Illuminated
May 29
Waning Gibbous
May 31
Last Quarter
Jun 8
New
Jun 16
First Quarter
Jun 23
Full

Hourly Weather History & Observations

Time (CDT) Temp. Heat Index Dew Point Humidity Pressure Visibility Wind Dir Wind Speed Gust Speed Precip Events Conditions
12:15 AM 64.8 °F - 63.0 °F 94% 29.87 in 10.0 mi SE 5.8 mph - N/A   Scattered Clouds
12:35 AM 65.7 °F - 63.3 °F 92% 29.87 in 10.0 mi South 5.8 mph - N/A   Scattered Clouds
12:55 AM 65.5 °F - 63.5 °F 93% 29.87 in 10.0 mi South 5.8 mph - N/A   Clear
1:15 AM 65.8 °F - 63.9 °F 93% 29.87 in 10.0 mi South 6.9 mph - N/A   Scattered Clouds
1:35 AM 66.9 °F - 64.4 °F 92% 29.87 in 10.0 mi South 8.1 mph - N/A Thunderstorm Mostly Cloudy
1:55 AM 67.5 °F - 65.5 °F 93% 29.89 in 7.0 mi SW 20.7 mph 32.2 mph 0.05 in Rain , Thunderstorm Light Thunderstorms and Rain
2:15 AM 65.8 °F - 64.4 °F 95% 29.88 in 10.0 mi SW 16.1 mph 21.9 mph 0.19 in Rain , Thunderstorm Light Thunderstorms and Rain
2:35 AM 65.3 °F - 64.4 °F 97% 29.87 in 10.0 mi SSW 8.1 mph - 0.19 in Rain , Thunderstorm Light Thunderstorms and Rain
2:55 AM 64.9 °F - 64.4 °F 98% 29.86 in 10.0 mi SE 5.8 mph - 0.20 in Rain , Thunderstorm Light Thunderstorms and Rain
3:15 AM 64.4 °F - 63.7 °F 98% 29.84 in 10.0 mi SE 11.5 mph - N/A   Scattered Clouds
3:35 AM 64.6 °F - 63.5 °F 96% 29.84 in 10.0 mi SSE 12.7 mph - N/A Rain Light Rain
3:55 AM 65.1 °F - 61.9 °F 89% 29.85 in 10.0 mi NNW 3.5 mph - N/A   Overcast
4:15 AM 64.9 °F - 62.2 °F 91% 29.87 in 10.0 mi North 3.5 mph - 0.01 in Rain Light Rain
4:35 AM 66.2 °F - 60.8 °F 83% 29.88 in 10.0 mi South 13.8 mph 17.3 mph 0.01 in   Light Drizzle
4:55 AM 65.5 °F - 61.2 °F 86% 29.90 in 10.0 mi SW 9.2 mph - 0.01 in   Clear
5:15 AM 64.9 °F - 62.6 °F 92% 29.95 in 10.0 mi West 10.4 mph - N/A   Mostly Cloudy
5:35 AM 65.3 °F - 62.1 °F 89% 29.96 in 10.0 mi WSW 10.4 mph - N/A   Mostly Cloudy
5:55 AM 65.3 °F - 60.8 °F 85% 29.96 in 10.0 mi West 8.1 mph - N/A   Mostly Cloudy
6:15 AM 64.9 °F - 60.4 °F 85% 29.94 in 10.0 mi WSW 3.5 mph - N/A   Scattered Clouds
6:35 AM 63.7 °F - 61.2 °F 91% 29.94 in 10.0 mi South 4.6 mph - N/A   Scattered Clouds
6:55 AM 64.4 °F - 61.0 °F 89% 29.92 in 10.0 mi SSE 5.8 mph - N/A   Clear
7:15 AM 64.9 °F - 61.5 °F 89% 29.93 in 10.0 mi South 8.1 mph - N/A   Clear
7:35 AM 65.3 °F - 61.2 °F 86% 29.92 in 10.0 mi SSE 8.1 mph - N/A   Clear
7:55 AM 66.7 °F - 61.9 °F 84% 29.94 in 10.0 mi South 5.8 mph - N/A   Clear
8:15 AM 69.3 °F - 62.6 °F 79% 29.95 in 10.0 mi South 6.9 mph - N/A   Clear
8:35 AM 71.2 °F - 63.7 °F 77% 29.95 in 10.0 mi South 10.4 mph - N/A   Scattered Clouds
8:55 AM 72.0 °F - 64.0 °F 76% 29.96 in 10.0 mi South 9.2 mph - N/A   Mostly Cloudy
9:15 AM 70.7 °F - 63.7 °F 78% 29.97 in 10.0 mi South 10.4 mph - N/A   Overcast
9:35 AM 71.2 °F - 63.9 °F 77% 29.97 in 10.0 mi South 11.5 mph - N/A   Overcast
9:55 AM 72.3 °F - 64.0 °F 75% 29.97 in 10.0 mi SSW 10.4 mph 17.3 mph N/A   Overcast
10:15 AM 73.9 °F - 65.8 °F 76% 29.96 in 10.0 mi South 9.2 mph - N/A   Overcast
10:35 AM 76.5 °F - 67.6 °F 74% 29.96 in 10.0 mi SSW 12.7 mph 18.4 mph N/A   Scattered Clouds
10:55 AM 77.2 °F - 67.8 °F 73% 29.96 in 10.0 mi SSW 11.5 mph 19.6 mph N/A   Scattered Clouds
11:15 AM 78.6 °F - 69.1 °F 72% 29.97 in 10.0 mi SSW 15.0 mph - N/A   Scattered Clouds
11:35 AM 78.3 °F - 68.9 °F 73% 29.97 in 10.0 mi SSW 18.4 mph 21.9 mph N/A   Mostly Cloudy
11:55 AM 78.4 °F - 69.3 °F 73% 29.96 in 10.0 mi SSW 13.8 mph 19.6 mph N/A   Overcast
12:15 PM 78.8 °F - 69.8 °F 74% 29.96 in 10.0 mi SSW 11.5 mph - N/A   Overcast
12:35 PM 81.7 °F 85.4 °F 70.2 °F 68% 29.96 in 10.0 mi SW 17.3 mph 20.7 mph N/A   Overcast
12:55 PM 81.5 °F 84.9 °F 69.8 °F 67% 29.96 in 10.0 mi SW 15.0 mph 19.6 mph N/A   Mostly Cloudy
1:15 PM 80.8 °F 83.6 °F 68.5 °F 66% 29.95 in 10.0 mi SSW 15.0 mph 23.0 mph N/A   Mostly Cloudy
1:35 PM 79.2 °F - 68.0 °F 69% 29.95 in 10.0 mi SW 13.8 mph 21.9 mph N/A   Mostly Cloudy
1:55 PM 81.9 °F 85.8 °F 70.3 °F 68% 29.95 in 10.0 mi SSW 11.5 mph 20.7 mph N/A   Mostly Cloudy
2:15 PM 83.3 °F 87.4 °F 70.0 °F 64% 29.95 in 10.0 mi SSW 15.0 mph 20.7 mph N/A   Scattered Clouds
2:35 PM 83.3 °F 86.9 °F 69.1 °F 62% 29.95 in 10.0 mi SSW 15.0 mph 23.0 mph N/A   Scattered Clouds
2:55 PM 82.6 °F 85.7 °F 68.5 °F 62% 29.95 in 10.0 mi SSW 16.1 mph 20.7 mph N/A   Scattered Clouds
3:15 PM 83.7 °F 87.0 °F 68.5 °F 60% 29.94 in 10.0 mi SW 15.0 mph - N/A   Clear
3:35 PM 80.6 °F 83.1 °F 67.5 °F 64% 29.94 in 10.0 mi SSW 11.5 mph - N/A   Scattered Clouds
3:55 PM 82.2 °F 85.8 °F 69.3 °F 65% 29.93 in 10.0 mi South 8.1 mph - N/A   Scattered Clouds
4:15 PM 82.0 °F 84.9 °F 68.0 °F 62% 29.93 in 10.0 mi SSW 9.2 mph - N/A   Scattered Clouds
4:35 PM 82.2 °F 84.6 °F 66.6 °F 59% 29.92 in 10.0 mi South 15.0 mph 20.7 mph N/A   Mostly Cloudy
4:55 PM 83.5 °F 86.0 °F 66.9 °F 57% 29.92 in 10.0 mi South 12.7 mph - N/A   Scattered Clouds
5:15 PM 82.6 °F 85.3 °F 67.5 °F 60% 29.92 in 10.0 mi South 10.4 mph - N/A   Scattered Clouds
5:35 PM 82.4 °F 84.8 °F 66.9 °F 59% 29.91 in 10.0 mi South 10.4 mph 20.7 mph N/A   Clear
5:55 PM 81.9 °F 84.1 °F 66.0 °F 59% 29.91 in 10.0 mi South 12.7 mph 17.3 mph N/A   Clear
6:15 PM 81.7 °F 83.8 °F 66.2 °F 59% 29.90 in 10.0 mi South 12.7 mph 18.4 mph N/A   Clear
6:35 PM 80.8 °F 82.9 °F 66.2 °F 61% 29.91 in 10.0 mi South 11.5 mph 18.4 mph N/A   Clear
6:55 PM 79.3 °F - 66.4 °F 64% 29.91 in 10.0 mi South 11.5 mph - N/A   Scattered Clouds
7:15 PM 78.8 °F - 66.6 °F 66% 29.91 in 10.0 mi South 11.5 mph - N/A   Scattered Clouds
7:35 PM 77.7 °F - 66.9 °F 69% 29.91 in 10.0 mi South 9.2 mph - N/A   Mostly Cloudy
7:55 PM 77.0 °F - 64.8 °F 66% 29.91 in 10.0 mi South 10.4 mph - N/A   Scattered Clouds
8:15 PM 75.7 °F - 64.6 °F 68% 29.92 in 10.0 mi South 8.1 mph - N/A   Clear
8:35 PM 75.2 °F - 64.6 °F 69% 29.92 in 10.0 mi SSE 8.1 mph - N/A   Clear
8:55 PM 74.8 °F - 63.3 °F 67% 29.92 in 10.0 mi SSE 8.1 mph - N/A   Scattered Clouds
9:15 PM 74.8 °F - 63.0 °F 66% 29.92 in 10.0 mi SSE 8.1 mph - N/A   Clear
9:35 PM 74.3 °F - 61.2 °F 63% 29.92 in 10.0 mi SE 9.2 mph - N/A   Clear
9:55 PM 74.3 °F - 60.1 °F 61% 29.92 in 10.0 mi SSE 11.5 mph - N/A   Clear
10:15 PM 73.9 °F - 59.9 °F 61% 29.93 in 10.0 mi SSE 8.1 mph - N/A   Clear
10:35 PM 73.2 °F - 59.9 °F 63% 29.94 in 10.0 mi SSE 8.1 mph - N/A   Clear
10:55 PM 72.5 °F - 59.9 °F 64% 29.95 in 10.0 mi SSE 9.2 mph - N/A   Clear
11:15 PM 72.5 °F - 59.7 °F 64% 29.95 in 10.0 mi South 6.9 mph - N/A   Clear
11:35 PM 72.0 °F - 60.1 °F 66% 29.96 in 10.0 mi SSE 8.1 mph - N/A   Clear
11:55 PM 71.6 °F - 60.4 °F 68% 29.96 in 10.0 mi SSE 8.1 mph - N/A   Clear